Voltar ao catálogo

KUZGTU-1

AtivoRádio AmadorSSO
NORAD 57217·PAYLOAD·🇷🇺 Russia
Este nome de satélite ainda não foi confirmado por fontes oficiais.

Lançado Jun 27, 2023 de Vostochny Cosmodrome

Loading…

Próximas Passagens (próximas 24 horas)

TLE

AtualizadoSource: Space-Track

Época: Sep 14, 2026, 10:59 UTC

1 57217U 23091AV  26257.45801805  .00009782  00000-0  32209-3 0  9995
2 57217  97.4972 322.9209 0011531 135.0591 225.1586 15.31638617178033

Acompanhe KUZGTU-1 em tempo real com AllMySat

Download on the App Store